This is the latest recevied weather packets stored in our database for station/object OE9GTV. If no packets are shown the sender has not sent any weather packets the latest 10 day(s).
| Time | Temp. | Humidity | Pressure | Rain* | Wind** | Luminosity | Snow |
|---|---|---|---|---|---|---|---|
| 1777938671 | 11.67° C | 70% | 1008.6 hPa | 0 mm | - | 0 W/m² | - |
| 1777938071 | 11.67° C | 70% | 1008.5 hPa | 0 mm | - | 0 W/m² | - |
| 1777937470 | 11.67° C | 69% | 1008.6 hPa | 0 mm | - | 0 W/m² | - |
| 1777936870 | 11.67° C | 68% | 1008.7 hPa | 0 mm | - | 0 W/m² | - |
| 1777936270 | 12.22° C | 67% | 1008.7 hPa | 0 mm | - | 0 W/m² | - |
| 1777935670 | 12.22° C | 67% | 1008.8 hPa | 0 mm | - | 0 W/m² | - |
| 1777935070 | 12.22° C | 65% | 1008.8 hPa | 0 mm | - | 0 W/m² | - |
| 1777934472 | 12.22° C | 65% | 1008.9 hPa | 0 mm | - | 0 W/m² | - |
| 1777933876 | 12.78° C | 64% | 1009 hPa | 0 mm | - | 0 W/m² | - |
| 1777933276 | 12.78° C | 63% | 1009 hPa | 0 mm | - | 0 W/m² | - |
| 1777932676 | 12.78° C | 61% | 1009.1 hPa | 0 mm | - | 0 W/m² | - |
| 1777932076 | 13.33° C | 61% | 1009 hPa | 0 mm | - | 0 W/m² | - |
| 1777931476 | 13.33° C | 59% | 1008.9 hPa | 0 mm | - | 0 W/m² | - |
| 1777930876 | 13.33° C | 58% | 1009 hPa | 0 mm | - | 0 W/m² | - |
| 1777930276 | 13.89° C | 57% | 1009 hPa | 0 mm | - | 0 W/m² | - |
| 1777929675 | 13.89° C | 56% | 1008.9 hPa | 0 mm | - | 0 W/m² | - |
| 1777929075 | 14.44° C | 56% | 1008.8 hPa | 0 mm | - | 0 W/m² | - |
| 1777928476 | 14.44° C | 55% | 1008.8 hPa | 0 mm | - | 0 W/m² | - |
| 1777927875 | 14.44° C | 54% | 1008.8 hPa | 0 mm | - | 0 W/m² | - |
| 1777927276 | 15° C | 53% | 1008.7 hPa | 0 mm | - | 0 W/m² | - |
| 1777926675 | 15.56° C | 52% | 1008.7 hPa | 0 mm | - | 0 W/m² | - |
| 1777926075 | 15.56° C | 51% | 1008.5 hPa | 0 mm | - | 0 W/m² | - |
| 1777925475 | 16.11° C | 49% | 1008.5 hPa | 0 mm | - | 0 W/m² | - |
| 1777924875 | 16.11° C | 48% | 1008.3 hPa | 0 mm | - | 0 W/m² | - |
| 1777924275 | 16.67° C | 47% | 1008.3 hPa | 0 mm | - | 0 W/m² | - |
* Rain latest hour (hover to see other rain measurements)
** Current wind speed in m/s (hover to see current wind gust speed)